Regional Weather Roundup
Issued by NWS Cleveland, OH

Home | Current Version | Previous Version | Graphics & Text | Print | Product List | Glossary On
Versions: 1 2 3 4 5 6 7 8 9 10 11 12 13 14 15 16 17 18 19 20 21 22 23 24 25 26 27 28 29 30 31 32 33 34 35 36 37 38 39 40 41 42 43 44 45 46 47 48 49 50
896
ASUS41 KCLE 110912
RWRCLE
OHIO REGIONAL WEATHER ROUNDUP
NATIONAL WEATHER SERVICE WILMINGTON, OH
400 AM EST THU FEB 11 2016

NOTE: "FAIR" INDICATES FEW OR NO CLOUDS BELOW 12,000 FEET WITH NO
SIGNIFICANT WEATHER AND/OR OBSTRUCTIONS TO VISIBILITY.

OHZ001>008-015>018-024>027-034-035-043-044-111000-
   NORTHWEST OHIO

CITY           SKY/WX    TMP DP  RH WIND       PRES   REMARKS
DEFIANCE       CLOUDY    16   9  74 VRB5      30.12R WCI   9
FINDLAY        CLOUDY    11   6  81 W8        30.09R WCI  -1
TOLEDO EXPRESS CLOUDY    13   4  67 W8        30.09R WCI   2
TOLEDO EXEC    CLOUDY    14   4  64 W7        30.10R WCI   4
LIMA           CLOUDY    12   6  77 W8        30.09R WCI   0
$$

OHZ009>014-019>023-028>033-038-089-111000-
   NORTHEAST OHIO

CITY           SKY/WX    TMP DP  RH WIND       PRES   REMARKS
CLE-HOPKINS    FLURRIES  15   3  59 NW16G28   30.05R WCI  -1
CLE-LAKEFRONT  MOCLDY    18   6  59 NW29G36   30.02S WCI  -1
CUY CO. ARPT   NOT AVBL
LORAIN-ELYRIA  LGT SNOW  14   6  70 NW13      30.04S WCI   0
ASHTABULA      MOCLDY    13   2  61 W16G26    29.96R WCI  -3
AKRON-CANTON   FLURRIES  11   5  77 W14       29.99R WCI  -5
WOOSTER        MOCLDY     9   2  73 NW13      30.02R WCI  -7
MANSFIELD      FAIR       8   4  83 W9        30.02R WCI  -5
YOUNGSTOWN     FLURRIES  13   3  64 NW14G21   29.95R WCI  -2
$$

OHZ042-051>053-060>062-070>072-077>081-111000-
  SOUTHWEST OHIO

CITY           SKY/WX    TMP DP  RH WIND       PRES   REMARKS
CINC-COVINGTON CLOUDY    13   6  74 W3        30.14S
CINC-LUNKEN    MOCLDY    16   7  67 W3        30.18F
HAMILTON       CLOUDY    12   6  77 NW5       30.17S WCI   4
DAYTON         CLOUDY     5   1  83 W9        30.12R WCI  -9
WRIGHT-PAT AFB PTCLDY     8   2  76 SW8       30.13R WCI  -5
DAYTON GENERAL FAIR      10   5  80 CALM      30.12R
WILMINGTON     FAIR       8   4  83 W7        30.12R WCI  -3
$$

OHZ036-037-039>041-045>050-054>059-063>069-073>076-082>088-111000-
  CENTRAL AND SOUTHEAST OHIO

CITY           SKY/WX    TMP DP  RH WIND       PRES   REMARKS
COLUMBUS       FAIR       8   1  73 W9        30.10R WCI  -5
OSU AIRPORT    FAIR       8   2  76 W8        30.10R WCI  -4
BOLTON FIELD   MOCLDY     6   1  78 W6        30.11S WCI  -4
RICKENBACK AFB CLOUDY     8   2  73 W5        30.12R WCI   0
NEWARK         FAIR       9   2  73 W5        30.08R WCI   1
MARION         MOCLDY    12   5  73 NW8       30.07R WCI   0
LANCASTER      CLOUDY     9   1  70 W8        30.11R WCI  -3
ZANESVILLE     FAIR      12   4  70 W7        30.08R WCI   1
NEW PHILLY     FAIR      13   6  74 W9G17     30.04S WCI   1
$$




USA.gov is the U.S. government's official web portal to all federal, state and local government web resources and services.